Location: Alpine
(43.1636°N, 111.0180°W)
Time: 04:29:26
(UTC+00:00)

Tiros 1 despin weight - Pass Details

Date: 29 May 2022
Orbit: 591 x 639 km, 48.2° (Epoch: 30 June)

Event Time Altitude Azimuth Distance (km) Brightness Sun altitude
Rises 03:49:32 0° 287° (WNW) 2,860 ? -9.0°
Reaches altitude 10° 03:51:56 10° 293° (WNW) 1,948 ? -9.3°
Maximum altitude 03:56:13 45° 7° (N) 818 ? -9.9°
Drops below altitude 10° 04:00:28 10° 81° (E) 1,925 ? -10.5°
Enters shadow 04:01:47 - 85° (E) 2,424 ? -10.6°
Sets 04:02:49 0° 88° (E) 2,822 - -10.8°
